TimeEST,TemperatureF,Dew PointF,Humidity,Sea Level PressureIn,VisibilityMPH,Wind Direction,Wind SpeedMPH,Gust SpeedMPH,PrecipitationIn,Events,Conditions,WindDirDegrees,DateUTC
12:53 AM,21.0,5.0,50,30.33,10.0,NNW,8.1,-,N/A,,Clear,340,2013-02-10 05:53:00
1:53 AM,19.9,5.0,52,30.35,10.0,NNW,8.1,-,N/A,,Clear,330,2013-02-10 06:53:00
2:53 AM,18.0,6.1,60,30.36,10.0,NW,8.1,-,N/A,,Clear,320,2013-02-10 07:53:00
3:53 AM,17.1,5.0,59,30.36,10.0,NNW,3.5,-,N/A,,Clear,330,2013-02-10 08:53:00
4:53 AM,17.1,5.0,59,30.38,10.0,NW,4.6,-,N/A,,Clear,320,2013-02-10 09:53:00
5:53 AM,16.0,3.9,59,30.39,10.0,NNW,5.8,-,N/A,,Clear,330,2013-02-10 10:53:00
6:53 AM,14.0,5.0,67,30.42,10.0,NW,4.6,-,N/A,,Clear,320,2013-02-10 11:53:00
7:53 AM,18.0,3.9,54,30.43,10.0,NNW,4.6,-,N/A,,Clear,340,2013-02-10 12:53:00
8:53 AM,23.0,1.9,40,30.45,10.0,North,6.9,-,N/A,,Clear,350,2013-02-10 13:53:00
9:53 AM,25.0,-0.0,34,30.48,10.0,NNW,5.8,-,N/A,,Clear,340,2013-02-10 14:53:00
10:53 AM,26.1,3.0,37,30.49,10.0,Variable,4.6,-,N/A,,Clear,0,2013-02-10 15:53:00
11:53 AM,28.0,6.1,39,30.46,10.0,Calm,Calm,-,N/A,,Clear,0,2013-02-10 16:53:00
12:53 PM,30.0,6.1,36,30.43,10.0,West,3.5,-,N/A,,Clear,280,2013-02-10 17:53:00
1:53 PM,30.9,6.1,35,30.41,10.0,Calm,Calm,-,N/A,,Clear,0,2013-02-10 18:53:00
2:53 PM,33.1,7.0,34,30.43,10.0,Calm,Calm,-,N/A,,Clear,0,2013-02-10 19:53:00
3:53 PM,33.1,7.0,34,30.39,10.0,Calm,Calm,-,N/A,,Clear,0,2013-02-10 20:53:00
4:53 PM,30.0,17.1,59,30.39,10.0,South,4.6,-,N/A,,Clear,190,2013-02-10 21:53:00
5:53 PM,28.0,17.1,63,30.40,10.0,SSW,3.5,-,N/A,,Clear,210,2013-02-10 22:53:00
6:53 PM,24.1,16.0,71,30.41,10.0,Calm,Calm,-,N/A,,Clear,0,2013-02-10 23:53:00
7:53 PM,21.9,17.1,82,30.40,10.0,Calm,Calm,-,N/A,,Clear,0,2013-02-11 00:53:00
8:53 PM,21.0,18.0,88,30.40,10.0,Calm,Calm,-,N/A,,Clear,0,2013-02-11 01:53:00
9:53 PM,19.9,16.0,85,30.38,10.0,Calm,Calm,-,N/A,,Clear,0,2013-02-11 02:53:00
10:53 PM,21.9,19.0,89,30.36,10.0,Calm,Calm,-,N/A,,Clear,0,2013-02-11 03:53:00
11:53 PM,25.0,19.9,81,30.35,10.0,Calm,Calm,-,N/A,,Clear,0,2013-02-11 04:53:00